,,Stat5,,Stat1,,Stat2,,Stat3,,Stat4,,Wind1,,Wind1,
time,status,PA1M_AVG,status,PR1M_SUM,status,RH1M_AVG,status,SR1M_AVG,status,TA1M_AVG,status,W1dAve1m,status,W1sAve1m,
2000-05-26, 00:00:00,VALID,916.966,VALID,0,VALID,98.9728,VALID,-0.0169808,VALID,19.6222,VALID,111,VALID,0.331836,
2000-05-26, 00:01:00,VALID,916.944,VALID,0,VALID,99.0084,VALID,0,VALID,19.6478,VALID,113,VALID,0,
2000-05-26, 00:02:00,VALID,916.93,VALID,0,VALID,98.9385,VALID,-0.0339617,VALID,19.6314,VALID,119,VALID,0,
2000-05-26, 00:03:00,VALID,916.906,VALID,0,VALID,98.9601,VALID,0.0169808,VALID,19.6085,VALID,120,VALID,0,
2000-05-26, 00:04:00,VALID,916.903,VALID,0,VALID,98.9779,VALID,0,VALID,19.6379,VALID,124,VALID,0,
2000-05-26, 00:05:00,VALID,916.867,VALID,0,VALID,98.9423,VALID,-0.0169808,VALID,19.612,VALID,144,VALID,0,
2000-05-26, 00:06:00,VALID,916.852,VALID,0,VALID,98.9779,VALID,0,VALID,19.6185,VALID,142,VALID,0,
2000-05-26, 00:07:00,VALID,916.841,VALID,0,VALID,98.9588,VALID,0.0339617,VALID,19.6118,VALID,136,VALID,0.0814453,
2000-05-26, 00:08:00,VALID,916.828,VALID,0,VALID,98.899,VALID,0,VALID,19.5829,VALID,127,VALID,0.461149,
2000-05-26, 00:09:00,VALID,916.807,VALID,0,VALID,98.9283,VALID,0,VALID,19.5824,VALID,109,VALID,0.614383,
2000-05-26, 00:10:00,VALID,916.796,VALID,0,VALID,98.8596,VALID,-0.0339617,VALID,19.567,VALID,120,VALID,0.649239,
2000-05-26, 00:11:00,VALID,916.784,VALID,0,VALID,98.8634,VALID,-0.0169808,VALID,19.5479,VALID,117,VALID,0.201858,
2000-05-26, 00:12:00,VALID,916.772,VALID,0,VALID,98.9448,VALID,-0.0169808,VALID,19.5705,VALID,107,VALID,0.135074,
2000-05-26, 00:13:00,VALID,916.746,VALID,0,VALID,98.9499,VALID,-0.0339617,VALID,19.567,VALID,105,VALID,0.140831,
2000-05-26, 00:14:00,VALID,916.723,VALID,0,VALID,98.9194,VALID,0,VALID,19.5608,VALID,115,VALID,0.511285,
2000-05-26, 00:15:00,VALID,916.7,VALID,0,VALID,98.9881,VALID,0,VALID,19.5536,VALID,122,VALID,0.273638,
2000-05-26, 00:16:00,VALID,916.665,VALID,0,VALID,98.983,VALID,-0.0169808,VALID,19.57,VALID,122,VALID,0.0135691,
2000-05-26, 00:17:00,VALID,916.643,VALID,0,VALID,98.9474,VALID,-0.0169808,VALID,19.5511,VALID,127,VALID,0,
2000-05-26, 00:18:00,VALID,916.609,VALID,0,VALID,98.9639,VALID,0,VALID,19.5444,VALID,135,VALID,0,
2000-05-26, 00:19:00,VALID,916.59,VALID,0,VALID,98.9448,VALID,-0.0169808,VALID,19.5188,VALID,137,VALID,0,
2000-05-26, 00:20:00,VALID,916.571,VALID,0,VALID,99.0198,VALID,0,VALID,19.5084,VALID,137,VALID,0,
2000-05-26, 00:21:00,VALID,916.552,VALID,0,VALID,99.0898,VALID,0,VALID,19.5479,VALID,137,VALID,0,
2000-05-26, 00:22:00,VALID,916.526,VALID,0,VALID,99.0834,VALID,0,VALID,19.5608,VALID,137,VALID,0,
2000-05-26, 00:23:00,VALID,916.516,VALID,0,VALID,99.016,VALID,0,VALID,19.532,VALID,143,VALID,0,
2000-05-26, 00:24:00,VALID,916.484,VALID,0,VALID,99.0046,VALID,-0.0339617,VALID,19.5024,VALID,162,VALID,0,
2000-05-26, 00:25:00,VALID,916.475,VALID,0,VALID,98.9982,VALID,-0.0169808,VALID,19.4701,VALID,182,VALID,0,
2000-05-26, 00:26:00,VALID,916.447,VALID,0,VALID,99.0427,VALID,-0.0169808,VALID,19.4639,VALID,194,VALID,0,
2000-05-26, 00:27:00,VALID,916.418,VALID,0,VALID,99.0351,VALID,0,VALID,19.4408,VALID,201,VALID,0.108203,
2000-05-26, 00:28:00,VALID,916.408,VALID,0,VALID,99.0872,VALID,-0.0339617,VALID,19.4319,VALID,205,VALID,0.210115,
2000-05-26, 00:29:00,VALID,916.401,VALID,0,VALID,99.0834,VALID,-0.0169808,VALID,19.4418,VALID,204,VALID,0.0190034,
2000-05-26, 00:30:00,VALID,916.385,VALID,0,VALID,99.0961,VALID,-0.0339617,VALID,19.4222,VALID,198,VALID,0,
2000-05-26, 00:31:00,VALID,916.38,VALID,0,VALID,99.0898,VALID,-0.0339617,VALID,19.4021,VALID,190,VALID,0.828348,
2000-05-26, 00:32:00,VALID,916.367,VALID,0,VALID,99.086,VALID,0,VALID,19.3799,VALID,186,VALID,0.842348,
2000-05-26, 00:33:00,VALID,916.343,VALID,0,VALID,99.1,VALID,-0.0339617,VALID,19.3735,VALID,176,VALID,0.736275,
2000-05-26, 00:34:00,VALID,916.349,VALID,0,VALID,99.105,VALID,-0.0169808,VALID,19.364,VALID,166,VALID,0.733758,
2000-05-26, 00:35:00,VALID,916.33,VALID,0,VALID,99.1356,VALID,-0.0169808,VALID,19.377,VALID,165,VALID,0.403571,
2000-05-26, 00:36:00,VALID,916.328,VALID,0,VALID,99.1483,VALID,-0.0169808,VALID,19.3603,VALID,177,VALID,0.156851,
2000-05-26, 00:37:00,VALID,916.312,VALID,0,VALID,99.175,VALID,-0.0169808,VALID,19.3765,VALID,183,VALID,0.486742,
2000-05-26, 00:38:00,VALID,916.313,VALID,0,VALID,99.1941,VALID,-0.0169808,VALID,19.3827,VALID,185,VALID,0.0234375,
2000-05-26, 00:39:00,VALID,916.305,VALID,0,VALID,99.2157,VALID,0,VALID,19.3926,VALID,195,VALID,0.142887,
2000-05-26, 00:40:00,VALID,916.302,VALID,0,VALID,99.2309,VALID,-0.0169808,VALID,19.4063,VALID,212,VALID,0.603165,
2000-05-26, 00:41:00,VALID,916.297,VALID,0,VALID,99.2208,VALID,-0.0169808,VALID,19.4155,VALID,213,VALID,0.846094,
2000-05-26, 00:42:00,VALID,916.292,VALID,0,VALID,99.2055,VALID,0,VALID,19.4055,VALID,197,VALID,0.835045,
2000-05-26, 00:43:00,VALID,916.314,VALID,0,VALID,99.2055,VALID,0,VALID,19.4093,VALID,198,VALID,0.805321,
2000-05-26, 00:44:00,VALID,916.317,VALID,0,VALID,99.2042,VALID,-0.0339617,VALID,19.3864,VALID,181,VALID,0.667279,
2000-05-26, 00:45:00,VALID,916.314,VALID,0,VALID,99.203,VALID,-0.0509425,VALID,19.3804,VALID,186,VALID,0.95067,
2000-05-26, 00:46:00,VALID,916.307,VALID,0,VALID,99.2258,VALID,-0.0679233,VALID,19.3904,VALID,191,VALID,0.767228,
2000-05-26, 00:47:00,VALID,916.3,VALID,0,VALID,99.2704,VALID,-0.0169808,VALID,19.3929,VALID,209,VALID,0.994932,
2000-05-26, 00:48:00,VALID,916.289,VALID,0,VALID,99.3021,VALID,-0.0339617,VALID,19.4256,VALID,221,VALID,1.38919,
2000-05-26, 00:49:00,VALID,916.255,VALID,0,VALID,99.3123,VALID,-0.0339617,VALID,19.4483,VALID,227,VALID,0.928125,
2000-05-26, 00:50:00,VALID,916.229,VALID,0,VALID,99.3339,VALID,-0.0509425,VALID,19.4577,VALID,230,VALID,1.02244,
2000-05-26, 00:51:00,VALID,916.204,VALID,0,VALID,99.3339,VALID,-0.0509425,VALID,19.4743,VALID,222,VALID,1.39489,
2000-05-26, 00:52:00,VALID,916.176,VALID,0,VALID,99.3199,VALID,-0.0169808,VALID,19.4676,VALID,220,VALID,1.42122,
2000-05-26, 00:53:00,VALID,916.165,VALID,0,VALID,99.3123,VALID,0,VALID,19.4575,VALID,227,VALID,1.51871,
2000-05-26, 00:54:00,VALID,916.153,VALID,0,VALID,99.3149,VALID,-0.0169808,VALID,19.4517,VALID,218,VALID,1.53025,
2000-05-26, 00:55:00,VALID,916.146,VALID,0,VALID,99.3314,VALID,-0.0169808,VALID,19.4483,VALID,234,VALID,1.73008,
2000-05-26, 00:56:00,VALID,916.134,VALID,0,VALID,99.3492,VALID,0,VALID,19.4612,VALID,222,VALID,1.82433,
2000-05-26, 00:57:00,VALID,916.121,VALID,0,VALID,99.3721,VALID,-0.0169808,VALID,19.4674,VALID,221,VALID,1.97656,
2000-05-26, 00:58:00,VALID,916.104,VALID,0,VALID,99.367,VALID,-0.0509425,VALID,19.4676,VALID,224,VALID,2.30239,
2000-05-26, 00:59:00,VALID,916.103,VALID,0,VALID,99.381,VALID,0,VALID,19.4639,VALID,226,VALID,1.76138,
2000-05-26, 01:00:00,VALID,916.104,VALID,0,VALID,99.3924,VALID,-0.0169808,VALID,19.4776,VALID,219,VALID,1.62079,
2000-05-26, 01:01:00,VALID,916.114,VALID,0,VALID,99.4051,VALID,-0.0169808,VALID,19.4776,VALID,231,VALID,1.57095,
2000-05-26, 01:02:00,VALID,916.1,VALID,0,VALID,99.4051,VALID,-0.0339617,VALID,19.4739,VALID,217,VALID,1.38446,
2000-05-26, 01:03:00,VALID,916.102,VALID,0,VALID,99.3975,VALID,-0.0339617,VALID,19.4642,VALID,222,VALID,1.72411,
2000-05-26, 01:04:00,VALID,916.091,VALID,0,VALID,99.4179,VALID,-0.0509425,VALID,19.4644,VALID,216,VALID,1.63321,
2000-05-26, 01:05:00,VALID,916.08,VALID,0,VALID,99.428,VALID,0,VALID,19.4843,VALID,217,VALID,2.05682,
2000-05-26, 01:06:00,VALID,916.09,VALID,0,VALID,99.4458,VALID,0,VALID,19.4801,VALID,228,VALID,1.77105,
2000-05-26, 01:07:00,VALID,916.066,VALID,0,VALID,99.4547,VALID,-0.0169808,VALID,19.4972,VALID,226,VALID,1.50555,
2000-05-26, 01:08:00,VALID,916.078,VALID,0,VALID,99.456,VALID,-0.0339617,VALID,19.5131,VALID,227,VALID,2.04046,
2000-05-26, 01:09:00,VALID,916.063,VALID,0,VALID,99.4624,VALID,-0.0339617,VALID,19.5057,VALID,220,VALID,1.6582,
2000-05-26, 01:10:00,VALID,916.055,VALID,0,VALID,99.4433,VALID,0,VALID,19.5258,VALID,225,VALID,2.13326,
2000-05-26, 01:11:00,VALID,916.047,VALID,0,VALID,99.4268,VALID,-0.0339617,VALID,19.529,VALID,229,VALID,2.01605,
2000-05-26, 01:12:00,VALID,916.034,VALID,0,VALID,99.409,VALID,0,VALID,19.5258,VALID,229,VALID,1.86098,
2000-05-26, 01:13:00,VALID,916.038,VALID,0,VALID,99.4026,VALID,0,VALID,19.5387,VALID,226,VALID,1.79308,
2000-05-26, 01:14:00,VALID,916.033,VALID,0,VALID,99.3962,VALID,-0.0169808,VALID,19.5352,VALID,229,VALID,1.45613,
2000-05-26, 01:15:00,VALID,916.013,VALID,0,VALID,99.381,VALID,-0.0169808,VALID,19.5452,VALID,218,VALID,2.06187,
2000-05-26, 01:16:00,VALID,915.995,VALID,0,VALID,99.3606,VALID,-0.0339617,VALID,19.5322,VALID,220,VALID,1.78906,
2000-05-26, 01:17:00,VALID,915.992,VALID,0,VALID,99.3683,VALID,0,VALID,19.5417,VALID,217,VALID,1.82522,
2000-05-26, 01:18:00,VALID,915.995,VALID,0,VALID,99.3492,VALID,0.0169808,VALID,19.5417,VALID,222,VALID,2.13502,
2000-05-26, 01:19:00,VALID,915.998,VALID,0,VALID,99.3466,VALID,-0.0339617,VALID,19.5417,VALID,225,VALID,1.78172,
2000-05-26, 01:20:00,VALID,916.011,VALID,0,VALID,99.3314,VALID,-0.0169808,VALID,19.5352,VALID,223,VALID,1.64475,
2000-05-26, 01:21:00,VALID,916.026,VALID,0,VALID,99.3187,VALID,0,VALID,19.5385,VALID,230,VALID,1.84046,
2000-05-26, 01:22:00,VALID,916.029,VALID,0,VALID,99.3149,VALID,-0.0169808,VALID,19.532,VALID,235,VALID,1.98598,
2000-05-26, 01:23:00,VALID,916.03,VALID,0,VALID,99.2958,VALID,-0.0169808,VALID,19.5454,VALID,227,VALID,2.52344,
2000-05-26, 01:24:00,VALID,916.025,VALID,0,VALID,99.2869,VALID,0,VALID,19.5382,VALID,220,VALID,1.57433,
2000-05-26, 01:25:00,VALID,916.01,VALID,0,VALID,99.2742,VALID,-0.0169808,VALID,19.5419,VALID,231,VALID,1.63978,
2000-05-26, 01:26:00,VALID,916.003,VALID,0,VALID,99.2627,VALID,-0.0339617,VALID,19.5419,VALID,220,VALID,2.00506,
2000-05-26, 01:27:00,VALID,915.998,VALID,0,VALID,99.2653,VALID,0.0169808,VALID,19.5389,VALID,212,VALID,1.54754,
2000-05-26, 01:28:00,VALID,915.989,VALID,0,VALID,99.2373,VALID,-0.0679233,VALID,19.5484,VALID,224,VALID,1.98037,
2000-05-26, 01:29:00,VALID,915.996,VALID,0,VALID,99.2258,VALID,-0.0339617,VALID,19.5486,VALID,237,VALID,1.86233,
2000-05-26, 01:30:00,VALID,915.997,VALID,0,VALID,99.2373,VALID,-0.0339617,VALID,19.5449,VALID,236,VALID,1.76275,
2000-05-26, 01:31:00,VALID,915.982,VALID,0,VALID,99.2144,VALID,-0.0339617,VALID,19.5613,VALID,226,VALID,1.79576,
2000-05-26, 01:32:00,VALID,915.969,VALID,0,VALID,99.1877,VALID,-0.0339617,VALID,19.5511,VALID,233,VALID,1.80108,
2000-05-26, 01:33:00,VALID,915.955,VALID,0,VALID,99.1788,VALID,-0.0509425,VALID,19.5546,VALID,228,VALID,1.32173,
2000-05-26, 01:34:00,VALID,915.947,VALID,0,VALID,99.1597,VALID,-0.0339617,VALID,19.5553,VALID,238,VALID,1.54102,
2000-05-26, 01:35:00,VALID,915.931,VALID,0,VALID,99.1457,VALID,-0.0339617,VALID,19.5516,VALID,225,VALID,1.88178,
2000-05-26, 01:36:00,VALID,915.904,VALID,0,VALID,99.1279,VALID,0,VALID,19.5449,VALID,234,VALID,1.80689,
2000-05-26, 01:37:00,VALID,915.897,VALID,0,VALID,99.1139,VALID,0.0169808,VALID,19.5484,VALID,237,VALID,1.49512,
2000-05-26, 01:38:00,VALID,915.891,VALID,0,VALID,99.1203,VALID,-0.0169808,VALID,19.5516,VALID,220,VALID,0.9875,
2000-05-26, 01:39:00,VALID,915.88,VALID,0,VALID,99.0987,VALID,-0.0339617,VALID,19.5449,VALID,240,VALID,1.79751,
2000-05-26, 01:40:00,VALID,915.869,VALID,0,VALID,99.0961,VALID,0,VALID,19.5382,VALID,236,VALID,1.30767,
2000-05-26, 01:41:00,VALID,915.879,VALID,0,VALID,99.0834,VALID,0,VALID,19.5484,VALID,238,VALID,1.42232,
2000-05-26, 01:42:00,VALID,915.876,VALID,0,VALID,99.0809,VALID,-0.0169808,VALID,19.525,VALID,264,VALID,0.946915,
2000-05-26, 01:43:00,VALID,915.884,VALID,0,VALID,99.0733,VALID,0,VALID,19.5347,VALID,246,VALID,0.884291,
2000-05-26, 01:44:00,VALID,915.879,VALID,0,VALID,99.0822,VALID,0,VALID,19.5385,VALID,243,VALID,0.207854,
2000-05-26, 01:45:00,VALID,915.888,VALID,0,VALID,99.0796,VALID,-0.0169808,VALID,19.5318,VALID,228,VALID,1.1596,
2000-05-26, 01:46:00,VALID,915.89,VALID,0,VALID,99.0516,VALID,0.0169808,VALID,19.5355,VALID,244,VALID,1.31891,
2000-05-26, 01:47:00,VALID,915.894,VALID,0,VALID,99.044,VALID,0,VALID,19.525,VALID,206,VALID,0.798769,
2000-05-26, 01:48:00,VALID,915.896,VALID,0,VALID,99.0427,VALID,0,VALID,19.5352,VALID,243,VALID,0.166016,
2000-05-26, 01:49:00,VALID,915.895,VALID,0,VALID,99.0326,VALID,0,VALID,19.5417,VALID,219,VALID,0.6875,
2000-05-26, 01:50:01,VALID,915.901,VALID,0,VALID,99.0313,VALID,-0.0169808,VALID,19.5387,VALID,232,VALID,0.290465,
2000-05-26, 01:51:01,VALID,915.896,VALID,0,VALID,99.0237,VALID,0,VALID,19.5447,VALID,222,VALID,1.05078,
2000-05-26, 01:52:00,VALID,915.913,VALID,0,VALID,99.0008,VALID,0,VALID,19.5484,VALID,230,VALID,1.22366,
2000-05-26, 01:53:00,VALID,915.913,VALID,0,VALID,98.9881,VALID,0,VALID,19.5578,VALID,214,VALID,1.25127,
2000-05-26, 01:54:00,VALID,915.917,VALID,0,VALID,98.9614,VALID,-0.0169808,VALID,19.5643,VALID,241,VALID,0.857767,
2000-05-26, 01:55:00,VALID,915.915,VALID,0,VALID,98.941,VALID,-0.0169808,VALID,19.5643,VALID,237,VALID,0.582143,
2000-05-26, 01:56:00,VALID,915.92,VALID,0,VALID,98.9385,VALID,-0.0169808,VALID,19.5576,VALID,207,VALID,0.422877,
2000-05-26, 01:57:00,VALID,915.923,VALID,0,VALID,98.9423,VALID,-0.0169808,VALID,19.5737,VALID,254,VALID,0,
2000-05-26, 01:58:00,VALID,915.914,VALID,0,VALID,98.913,VALID,0,VALID,19.574,VALID,246,VALID,0.588199,
2000-05-26, 01:59:00,VALID,915.923,VALID,0,VALID,98.8889,VALID,-0.0339617,VALID,19.5678,VALID,197,VALID,0.205357,
2000-05-26, 02:00:00,VALID,915.922,VALID,0,VALID,98.88,VALID,-0.0339617,VALID,19.571,VALID,255,VALID,0.154848,
2000-05-26, 02:01:00,VALID,915.917,VALID,0,VALID,98.8952,VALID,-0.0169808,VALID,19.5834,VALID,279,VALID,0.370739,
2000-05-26, 02:02:00,VALID,915.918,VALID,0,VALID,98.8876,VALID,-0.0509425,VALID,19.5872,VALID,263,VALID,0.0564236,
2000-05-26, 02:03:00,VALID,915.92,VALID,0,VALID,98.8609,VALID,-0.0339617,VALID,19.5839,VALID,288,VALID,0.0779194,
2000-05-26, 02:04:00,VALID,915.923,VALID,0,VALID,98.8698,VALID,-0.0339617,VALID,19.5901,VALID,270,VALID,0,
2000-05-26, 02:05:00,VALID,915.911,VALID,0,VALID,98.8609,VALID,-0.0169808,VALID,19.6128,VALID,239,VALID,0.196181,
2000-05-26, 02:06:00,VALID,915.911,VALID,0,VALID,98.824,VALID,-0.0169808,VALID,19.6033,VALID,217,VALID,0.554018,
2000-05-26, 02:07:00,VALID,915.906,VALID,0,VALID,98.7973,VALID,-0.0509425,VALID,19.5966,VALID,211,VALID,0.591427,
2000-05-26, 02:08:00,VALID,915.888,VALID,0,VALID,98.7274,VALID,-0.0169808,VALID,19.5772,VALID,224,VALID,1.4097,
2000-05-26, 02:09:01,VALID,915.873,VALID,0,VALID,98.7248,VALID,-0.0169808,VALID,19.5809,VALID,234,VALID,1.17701,
2000-05-26, 02:10:00,VALID,915.861,VALID,0,VALID,98.7287,VALID,-0.0169808,VALID,19.5606,VALID,225,VALID,1.00381,
2000-05-26, 02:11:00,VALID,915.844,VALID,0,VALID,98.7363,VALID,-0.0339617,VALID,19.5479,VALID,228,VALID,1.18201,
2000-05-26, 02:12:00,VALID,915.839,VALID,0,VALID,98.7388,VALID,-0.0509425,VALID,19.5516,VALID,232,VALID,1.2317,
2000-05-26, 02:13:00,VALID,915.826,VALID,0,VALID,98.7185,VALID,-0.0169808,VALID,19.5452,VALID,231,VALID,1.10223,
2000-05-26, 02:14:00,VALID,915.804,VALID,0,VALID,98.7337,VALID,-0.0169808,VALID,19.532,VALID,213,VALID,0.936899,
2000-05-26, 02:15:00,VALID,915.797,VALID,0,VALID,98.7401,VALID,0,VALID,19.5188,VALID,221,VALID,0.939394,
2000-05-26, 02:16:00,VALID,915.784,VALID,0,VALID,98.7693,VALID,0,VALID,19.5158,VALID,229,VALID,0.978733,
2000-05-26, 02:17:00,VALID,915.779,VALID,0,VALID,98.7986,VALID,-0.0679233,VALID,19.5126,VALID,230,VALID,1.3016,
2000-05-26, 02:18:01,VALID,915.764,VALID,0,VALID,98.8189,VALID,-0.0339617,VALID,19.5193,VALID,219,VALID,1.74159,
2000-05-26, 02:19:00,VALID,915.752,VALID,0,VALID,98.8342,VALID,-0.0169808,VALID,19.5059,VALID,224,VALID,1.80566,
2000-05-26, 02:20:00,VALID,915.741,VALID,0,VALID,98.8609,VALID,-0.0679233,VALID,19.5029,VALID,225,VALID,1.65,
2000-05-26, 02:21:00,VALID,915.729,VALID,0,VALID,98.8736,VALID,-0.0169808,VALID,19.4965,VALID,220,VALID,1.77851,
2000-05-26, 02:22:00,VALID,915.704,VALID,0,VALID,98.9054,VALID,-0.0509425,VALID,19.4967,VALID,225,VALID,1.61167,
2000-05-26, 02:23:00,VALID,915.697,VALID,0,VALID,98.9219,VALID,-0.0339617,VALID,19.4706,VALID,231,VALID,1.36942,
2000-05-26, 02:24:00,VALID,915.705,VALID,0,VALID,98.9512,VALID,-0.0169808,VALID,19.4704,VALID,230,VALID,1.27244,
2000-05-26, 02:25:00,VALID,915.692,VALID,0,VALID,98.9614,VALID,-0.0169808,VALID,19.4577,VALID,223,VALID,1.26056,
2000-05-26, 02:26:01,VALID,915.704,VALID,0,VALID,98.9652,VALID,0,VALID,19.448,VALID,232,VALID,1.37911,
2000-05-26, 02:27:00,VALID,915.706,VALID,0,VALID,98.9817,VALID,-0.0679233,VALID,19.4418,VALID,218,VALID,1.44241,
2000-05-26, 02:28:00,VALID,915.702,VALID,0,VALID,98.9753,VALID,-0.0169808,VALID,19.4224,VALID,223,VALID,1.6264,
2000-05-26, 02:29:00,VALID,915.704,VALID,0,VALID,98.9881,VALID,-0.0509425,VALID,19.403,VALID,213,VALID,2.19247,
2000-05-26, 02:30:00,VALID,915.711,VALID,0,VALID,98.9995,VALID,0,VALID,19.3799,VALID,217,VALID,1.45551,
2000-05-26, 02:31:00,VALID,915.719,VALID,0,VALID,99.0237,VALID,0,VALID,19.3767,VALID,216,VALID,1.82566,
2000-05-26, 02:32:00,VALID,915.718,VALID,0,VALID,99.0148,VALID,-0.0169808,VALID,19.364,VALID,214,VALID,2.08754,
2000-05-26, 02:33:00,VALID,915.726,VALID,0,VALID,99.0313,VALID,-0.0169808,VALID,19.3514,VALID,218,VALID,1.25273,
2000-05-26, 02:34:00,VALID,915.705,VALID,0,VALID,99.0313,VALID,-0.0169808,VALID,19.3417,VALID,212,VALID,1.26027,
2000-05-26, 02:35:00,VALID,915.719,VALID,0,VALID,99.0694,VALID,-0.0339617,VALID,19.3481,VALID,221,VALID,1.10769,
2000-05-26, 02:36:00,VALID,915.705,VALID,0,VALID,99.0605,VALID,-0.0169808,VALID,19.3543,VALID,212,VALID,1.42969,
2000-05-26, 02:37:00,VALID,915.714,VALID,0,VALID,99.0567,VALID,0,VALID,19.3447,VALID,208,VALID,1.36228,
2000-05-26, 02:38:00,VALID,915.707,VALID,0,VALID,99.0427,VALID,0,VALID,19.3412,VALID,196,VALID,1.26963,
2000-05-26, 02:39:00,VALID,915.714,VALID,0,VALID,99.0237,VALID,-0.0339617,VALID,19.3315,VALID,214,VALID,1.11128,
2000-05-26, 02:40:00,VALID,915.702,VALID,0,VALID,98.9982,VALID,-0.0169808,VALID,19.3481,VALID,199,VALID,1.08614,
2000-05-26, 02:41:00,VALID,915.703,VALID,0,VALID,98.9728,VALID,0,VALID,19.3382,VALID,203,VALID,0.960268,
2000-05-26, 02:42:00,VALID,915.706,VALID,0,VALID,98.9486,VALID,-0.0169808,VALID,19.325,VALID,215,VALID,0.845753,
2000-05-26, 02:43:00,VALID,915.687,VALID,0,VALID,98.8889,VALID,-0.0169808,VALID,19.3193,VALID,191,VALID,0.922822,
2000-05-26, 02:44:00,VALID,915.683,VALID,0,VALID,98.8609,VALID,-0.0169808,VALID,19.2997,VALID,185,VALID,0.916016,
2000-05-26, 02:45:00,VALID,915.68,VALID,0,VALID,98.8024,VALID,-0.0339617,VALID,19.2704,VALID,179,VALID,0.916118,
2000-05-26, 02:46:00,VALID,915.683,VALID,0,VALID,98.7261,VALID,-0.0339617,VALID,19.2545,VALID,187,VALID,1.372,
2000-05-26, 02:47:00,VALID,915.692,VALID,0,VALID,98.529,VALID,-0.0169808,VALID,19.1995,VALID,180,VALID,1.53574,
2000-05-26, 02:48:01,VALID,915.695,VALID,0,VALID,98.4235,VALID,0,VALID,19.1834,VALID,154,VALID,1.26384,
2000-05-26, 02:49:01,VALID,915.696,VALID,0,VALID,98.3243,VALID,-0.0169808,VALID,19.1702,VALID,175,VALID,1.10304,
2000-05-26, 02:50:00,VALID,915.693,VALID,0,VALID,98.1183,VALID,-0.0339617,VALID,19.1541,VALID,193,VALID,0.904182,
2000-05-26, 02:51:01,VALID,915.69,VALID,0,VALID,97.911,VALID,-0.0339617,VALID,19.1345,VALID,190,VALID,1.61652,
2000-05-26, 02:52:00,VALID,915.696,VALID,0,VALID,97.7749,VALID,-0.0509425,VALID,19.1315,VALID,173,VALID,0.997796,
2000-05-26, 02:53:01,VALID,915.708,VALID,0,VALID,97.6847,VALID,-0.0169808,VALID,19.122,VALID,186,VALID,0.916596,
2000-05-26, 02:54:01,VALID,915.715,VALID,0,VALID,97.5804,VALID,0.0509425,VALID,19.1211,VALID,170,VALID,1.23458,
2000-05-26, 02:55:00,VALID,915.727,VALID,0,VALID,97.5359,VALID,0,VALID,19.1241,VALID,159,VALID,1.19821,
2000-05-26, 02:56:01,VALID,915.725,VALID,0,VALID,97.5283,VALID,0.0339617,VALID,19.1275,VALID,154,VALID,0.998598,
2000-05-26, 02:57:01,VALID,915.735,VALID,0,VALID,97.6503,VALID,0.0339617,VALID,19.1564,VALID,191,VALID,1.63021,
2000-05-26, 02:58:00,VALID,915.754,VALID,0,VALID,97.5969,VALID,0,VALID,19.1628,VALID,204,VALID,0.754557,
2000-05-26, 02:59:01,VALID,915.762,VALID,0,VALID,97.4431,VALID,0.0679233,VALID,19.1564,VALID,206,VALID,1.13549,
2000-05-26, 03:00:01,VALID,915.774,VALID,0,VALID,97.059,VALID,0.0679233,VALID,19.1561,VALID,214,VALID,1.34175,
2000-05-26, 03:01:01,VALID,915.776,VALID,0,VALID,96.8187,VALID,0.0339617,VALID,19.2088,VALID,217,VALID,1.20605,
2000-05-26, 03:02:00,VALID,915.774,VALID,0,VALID,96.5784,VALID,0.0339617,VALID,19.2207,VALID,215,VALID,1.08594,
2000-05-26, 03:03:00,VALID,915.775,VALID,0,VALID,96.4499,VALID,0.0509425,VALID,19.244,VALID,206,VALID,0.876478,
2000-05-26, 03:04:00,VALID,915.786,VALID,0,VALID,96.4665,VALID,0.0169808,VALID,19.2535,VALID,239,VALID,0.768153,
2000-05-26, 03:05:01,VALID,915.78,VALID,0,VALID,96.6152,VALID,0.0679233,VALID,19.2634,VALID,205,VALID,0.652232,
2000-05-26, 03:06:00,VALID,915.785,VALID,0,VALID,96.6877,VALID,0.0679233,VALID,19.2639,VALID,217,VALID,1.01502,
2000-05-26, 03:07:01,VALID,915.785,VALID,0,VALID,96.7195,VALID,0.0169808,VALID,19.2443,VALID,182,VALID,0.527238,
2000-05-26, 03:08:01,VALID,915.776,VALID,0,VALID,96.6356,VALID,0.0169808,VALID,19.2408,VALID,198,VALID,0.467928,
2000-05-26, 03:09:01,VALID,915.794,VALID,0,VALID,96.338,VALID,0.0339617,VALID,19.2279,VALID,177,VALID,0.86942,
2000-05-26, 03:10:01,VALID,915.803,VALID,0,VALID,96.2554,VALID,0.0509425,VALID,19.2341,VALID,179,VALID,0.487179,
2000-05-26, 03:11:01,VALID,915.786,VALID,0,VALID,96.3355,VALID,0.0849042,VALID,19.2637,VALID,194,VALID,0.328362,
2000-05-26, 03:12:01,VALID,915.789,VALID,0,VALID,96.3838,VALID,0.0509425,VALID,19.2629,VALID,168,VALID,0.363498,
2000-05-26, 03:13:01,VALID,915.792,VALID,0,VALID,96.4334,VALID,0.0339617,VALID,19.2632,VALID,139,VALID,0.130962,
2000-05-26, 03:14:01,VALID,915.789,VALID,0,VALID,96.558,VALID,0.0339617,VALID,19.2763,VALID,140,VALID,0.0410657,
2000-05-26, 03:15:01,VALID,915.806,VALID,0,VALID,96.558,VALID,0.0849042,VALID,19.2699,VALID,140,VALID,0,
2000-05-26, 03:16:01,VALID,915.812,VALID,0,VALID,96.7004,VALID,0.0509425,VALID,19.2634,VALID,140,VALID,0,
2000-05-26, 03:17:01,VALID,915.811,VALID,0,VALID,96.8848,VALID,0.0509425,VALID,19.2599,VALID,123,VALID,0.157095,
2000-05-26, 03:18:01,VALID,915.81,VALID,0,VALID,97.0209,VALID,0.0679233,VALID,19.2701,VALID,133,VALID,0.130974,
2000-05-26, 03:19:01,VALID,915.806,VALID,0,VALID,97.0603,VALID,0.0339617,VALID,19.2669,VALID,287,VALID,0.13125,
2000-05-26, 03:20:01,VALID,915.792,VALID,0,VALID,97.0641,VALID,0.0849042,VALID,19.2666,VALID,300,VALID,0,
2000-05-26, 03:21:01,VALID,915.798,VALID,0,VALID,97.2167,VALID,0.0509425,VALID,19.289,VALID,33,VALID,0.00971284,
2000-05-26, 03:22:01,VALID,915.797,VALID,0,VALID,97.2256,VALID,0.0169808,VALID,19.2893,VALID,103,VALID,0.667558,
2000-05-26, 03:23:01,VALID,915.786,VALID,0,VALID,97.073,VALID,0.0509425,VALID,19.2244,VALID,87,VALID,0.914955,
2000-05-26, 03:24:01,VALID,915.786,VALID,0,VALID,97.115,VALID,-0.0509425,VALID,19.2003,VALID,102,VALID,0.692909,
2000-05-26, 03:25:01,VALID,915.782,VALID,0,VALID,97.2358,VALID,-0.101885,VALID,19.1814,VALID,94,VALID,0.775331,
2000-05-26, 03:26:01,VALID,915.778,VALID,0,VALID,97.2091,VALID,-0.0849042,VALID,19.1163,VALID,112,VALID,0.743273,
2000-05-26, 03:27:01,VALID,915.784,VALID,0,VALID,97.3095,VALID,-0.0849042,VALID,19.0708,VALID,103,VALID,0.812706,
2000-05-26, 03:28:01,VALID,915.785,VALID,0,VALID,97.5079,VALID,-0.0679233,VALID,19.045,VALID,113,VALID,0.488181,
2000-05-26, 03:29:01,VALID,915.793,VALID,0,VALID,97.5639,VALID,-0.0679233,VALID,19.0062,VALID,110,VALID,0.681641,
2000-05-26, 03:30:01,VALID,915.805,VALID,0,VALID,97.7012,VALID,-0.0169808,VALID,18.9873,VALID,116,VALID,0.582366,
2000-05-26, 03:31:00,VALID,915.813,VALID,0,VALID,97.7927,VALID,-0.0509425,VALID,18.9578,VALID,112,VALID,0.615498,
2000-05-26, 03:32:00,VALID,915.816,VALID,0,VALID,97.9352,VALID,-0.0849042,VALID,18.962,VALID,110,VALID,0.609605,
2000-05-26, 03:33:00,VALID,915.812,VALID,0,VALID,98.0102,VALID,-0.0509425,VALID,18.9255,VALID,111,VALID,0.825893,